| time (UTC) | temp C | wind direction | speed KPH | gust KPH | rain 1hr cm | rain 24hr cm | rain mn cm | humidity % | barometer mb |
| 20260906040221 | 24 | 298 | 0.0 | 0.0 | 0.00 | 0.00 | 0.00 | 89 | 1010.4 |
| 20260906035242 | 25 | 298 | 0.0 | 0.0 | 0.00 | 0.00 | 0.00 | 89 | 1010.3 |
| 20260906034258 | 25 | 298 | 0.0 | 0.0 | 0.00 | 0.00 | 0.00 | 89 | 1010.3 |
| 20260906033228 | 25 | 298 | 0.0 | 0.0 | 0.00 | 0.00 | 0.00 | 88 | 1010.3 |
| 20260906032235 | 25 | 298 | 0.0 | 0.0 | 0.00 | 0.00 | 0.00 | 88 | 1010.1 |
| 20260906031215 | 25 | 298 | 0.0 | 0.0 | 0.00 | 0.00 | 0.00 | 87 | 1010.1 |
| 20260906030203 | 25 | 298 | 0.0 | 0.0 | 0.00 | 0.00 | 0.00 | 87 | 1009.9 |
| 20260906025148 | 25 | 298 | 0.0 | 0.0 | 0.00 | 0.00 | 0.00 | 86 | 1009.7 |
| 20260906024141 | 25 | 298 | 0.0 | 0.0 | 0.00 | 0.00 | 0.00 | 86 | 1009.6 |
| 20260906023111 | 26 | 298 | 0.0 | 0.0 | 0.00 | 0.00 | 0.00 | 85 | 1009.5 |
| 20260906022123 | 26 | 298 | 0.0 | 0.0 | 0.00 | 0.00 | 0.00 | 84 | 1009.5 |
| 20260906021109 | 26 | 298 | 0.0 | 0.0 | 0.00 | 0.00 | 0.00 | 83 | 1009.5 |
| 20260906014935 | 26 | 298 | 0.0 | 0.0 | 0.00 | 0.00 | 0.00 | 82 | 1009.5 |
| 20260906013908 | 27 | 298 | 0.0 | 0.0 | 0.00 | 0.00 | 0.00 | 81 | 1009.5 |
| 20260906012846 | 27 | 298 | 0.0 | 0.0 | 0.00 | 0.00 | 0.00 | 80 | 1009.4 |
| 20260906011829 | 27 | 298 | 0.0 | 0.0 | 0.00 | 0.00 | 0.00 | 79 | 1009.3 |
| 20260906010830 | 27 | 298 | 0.0 | 0.0 | 0.00 | 0.00 | 0.00 | 78 | 1009.2 |
| 20260906005823 | 28 | 298 | 0.0 | 0.0 | 0.00 | 0.00 | 0.00 | 77 | 1009.1 |
| 20260906003640 | 29 | 298 | 0.0 | 0.0 | 0.00 | 0.00 | 0.00 | 74 | 1008.9 |
| 20260906002631 | 30 | 298 | 0.0 | 0.0 | 0.00 | 0.00 | 0.00 | 71 | 1008.9 |
| 20260906001608 | 30 | 298 | 0.0 | 0.0 | 0.00 | 0.00 | 0.00 | 70 | 1009.0 |
| 20260906000625 | 31 | 298 | 0.0 | 0.0 | 0.00 | 0.00 | 0.00 | 67 | 1009.0 |
| 20260905235639 | 31 | 298 | 0.0 | 0.0 | 0.00 | 0.00 | 0.00 | 66 | 1009.1 |
| 20260905232410 | 33 | 298 | 0.0 | 0.0 | 0.00 | 0.00 | 0.00 | 57 | 1009.2 |
| 20260905231352 | 35 | 300 | 0.0 | 0.0 | 0.00 | 0.00 | 0.00 | 51 | 1009.1 |
| 20260905225243 | 35 | 295 | 0.0 | 0.0 | 0.00 | 0.00 | 0.00 | 48 | 1009.0 |
| 20260905224216 | 36 | 336 | 0.0 | 1.6 | 0.00 | 0.00 | 0.00 | 49 | 1008.9 |
| 20260905223210 | 36 | 346 | 0.0 | 0.0 | 0.00 | 0.00 | 0.00 | 47 | 1009.1 |
| 20260905222213 | 36 | 150 | 0.0 | 4.8 | 0.00 | 0.00 | 0.00 | 45 | 1009.0 |
| 20260905221227 | 36 | 24 | 0.0 | 4.8 | 0.00 | 0.00 | 0.00 | 43 | 1009.1 |
| 20260905220227 | 36 | 28 | 0.0 | 8.0 | 0.00 | 0.00 | 0.00 | 43 | 1009.2 |
| 20260905214032 | 37 | 211 | 0.0 | 8.0 | 0.00 | 0.00 | 0.00 | 43 | 1009.2 |
| 20260905213050 | 37 | 98 | 0.0 | 6.4 | 0.00 | 0.00 | 0.00 | 43 | 1009.2 |
| 20260905212059 | 36 | 34 | 1.6 | 11.3 | 0.00 | 0.00 | 0.00 | 44 | 1009.3 |
| 20260905211119 | 37 | 31 | 1.6 | 11.3 | 0.00 | 0.00 | 0.00 | 44 | 1009.2 |
| 20260905210114 | 37 | 40 | 0.0 | 8.0 | 0.00 | 0.00 | 0.00 | 44 | 1009.3 |
| 20260905205056 | 37 | 10 | 0.0 | 8.0 | 0.00 | 0.00 | 0.00 | 44 | 1009.6 |
| 20260905204045 | 37 | 144 | 0.0 | 4.8 | 0.00 | 0.00 | 0.00 | 42 | 1009.7 |
| 20260905203037 | 37 | 19 | 0.0 | 4.8 | 0.00 | 0.00 | 0.00 | 44 | 1009.8 |
| 20260905200927 | 37 | 263 | 0.0 | 11.3 | 0.00 | 0.00 | 0.00 | 43 | 1010.0 |
| 20260905194720 | 37 | 211 | 0.0 | 0.0 | 0.00 | 0.00 | 0.00 | 40 | 1010.4 |
| 20260905193744 | 37 | 102 | 1.6 | 12.9 | 0.00 | 0.00 | 0.00 | 38 | 1010.6 |
| 20260905192727 | 37 | 21 | 0.0 | 11.3 | 0.00 | 0.00 | 0.00 | 39 | 1010.6 |
| 20260905191659 | 37 | 353 | 1.6 | 12.9 | 0.00 | 0.00 | 0.00 | 42 | 1010.9 |
| 20260905190629 | 37 | 31 | 0.0 | 6.4 | 0.00 | 0.00 | 0.00 | 41 | 1011.1 |
| 20260905184453 | 38 | 315 | 0.0 | 9.7 | 0.00 | 0.00 | 0.00 | 41 | 1011.4 |
| 20260905183452 | 37 | 184 | 0.0 | 11.3 | 0.00 | 0.00 | 0.00 | 43 | 1011.5 |
| 20260905182426 | 37 | 272 | 0.0 | 9.7 | 0.00 | 0.00 | 0.00 | 45 | 1011.6 |
| 20260905181419 | 36 | 32 | 0.0 | 9.7 | 0.00 | 0.00 | 0.00 | 47 | 1011.6 |
| 20260905180442 | 36 | 339 | 3.2 | 12.9 | 0.00 | 0.00 | 0.00 | 47 | 1011.7 |
| 20260905175432 | 36 | 11 | 1.6 | 12.9 | 0.00 | 0.00 | 0.00 | 48 | 1011.7 |
| 20260905174436 | 37 | 11 | 0.0 | 4.8 | 0.00 | 0.00 | 0.00 | 50 | 1011.7 |
| 20260905173409 | 36 | 113 | 0.0 | 8.0 | 0.00 | 0.00 | 0.00 | 51 | 1011.8 |
| 20260905172420 | 36 | 73 | 0.0 | 8.0 | 0.00 | 0.00 | 0.00 | 51 | 1012.0 |
| 20260905170311 | 35 | 305 | 0.0 | 6.4 | 0.00 | 0.00 | 0.00 | 54 | 1012.3 |
| 20260905165313 | 35 | 82 | 1.6 | 6.4 | 0.00 | 0.00 | 0.00 | 54 | 1012.3 |
| 20260905160740 | 33 | 15 | 0.0 | 1.6 | 0.00 | 0.00 | 0.00 | 61 | 1013.0 |
| 20260905155741 | 32 | 123 | 0.0 | 0.0 | 0.00 | 0.00 | 0.00 | 65 | 1013.0 |
| 20260905154804 | 31 | 150 | 0.0 | 1.6 | 0.00 | 0.00 | 0.00 | 67 | 1013.1 |
| 20260905153816 | 32 | 132 | 0.0 | 1.6 | 0.00 | 0.00 | 0.00 | 67 | 1013.0 |
| 20260905152811 | 32 | 125 | 0.0 | 1.6 | 0.00 | 0.00 | 0.00 | 66 | 1013.1 |
| 20260905150710 | 31 | 19 | 0.0 | 0.0 | 0.00 | 0.00 | 0.00 | 69 | 1013.2 |
| 20260905145654 | 31 | 19 | 0.0 | 0.0 | 0.00 | 0.00 | 0.00 | 68 | 1013.1 |
| 20260905144650 | 30 | 325 | 0.0 | 1.6 | 0.00 | 0.00 | 0.00 | 71 | 1013.1 |
| 20260905143710 | 29 | 62 | 0.0 | 0.0 | 0.00 | 0.00 | 0.00 | 77 | 1013.2 |
| 20260905142705 | 28 | 96 | 0.0 | 0.0 | 0.00 | 0.00 | 0.00 | 80 | 1013.3 |
| 20260905141647 | 28 | 96 | 0.0 | 0.0 | 0.00 | 0.00 | 0.00 | 82 | 1013.2 |
| 20260905140630 | 27 | 33 | 0.0 | 0.0 | 0.00 | 0.00 | 0.00 | 85 | 1013.3 |
| 20260905135641 | 26 | 35 | 0.0 | 0.0 | 0.00 | 0.00 | 0.00 | 87 | 1013.3 |
| 20260905134618 | 26 | 34 | 0.0 | 0.0 | 0.00 | 0.00 | 0.00 | 88 | 1013.3 |
| 20260905133611 | 26 | 34 | 0.0 | 1.6 | 0.00 | 0.00 | 0.00 | 89 | 1013.3 |
| 20260905132622 | 25 | 26 | 0.0 | 1.6 | 0.00 | 0.00 | 0.00 | 90 | 1013.3 |
| 20260905130516 | 24 | 27 | 0.0 | 1.6 | 0.00 | 0.00 | 0.00 | 89 | 1013.1 |
| 20260905125451 | 23 | 115 | 0.0 | 0.0 | 0.00 | 0.00 | 0.00 | 89 | 1013.1 |
| 20260905124426 | 23 | 115 | 0.0 | 0.0 | 0.00 | 0.00 | 0.00 | 89 | 1013.2 |
| 20260905123412 | 22 | 115 | 0.0 | 0.0 | 0.00 | 0.00 | 0.00 | 89 | 1013.2 |
| 20260905122424 | 22 | 115 | 0.0 | 0.0 | 0.00 | 0.00 | 0.00 | 89 | 1013.1 |
| 20260905120315 | 22 | 115 | 0.0 | 0.0 | 0.00 | 0.00 | 0.00 | 90 | 1012.7 |
| 20260905115249 | 22 | 115 | 0.0 | 0.0 | 0.00 | 0.00 | 0.00 | 90 | 1012.7 |
| 20260905114223 | 22 | 115 | 0.0 | 0.0 | 0.00 | 0.00 | 0.00 | 90 | 1012.5 |
| 20260905113242 | 22 | 115 | 0.0 | 0.0 | 0.00 | 0.00 | 0.00 | 90 | 1012.5 |
| 20260905112240 | 22 | 115 | 0.0 | 0.0 | 0.00 | 0.00 | 0.00 | 90 | 1012.3 |
| 20260905111257 | 22 | 115 | 0.0 | 0.0 | 0.00 | 0.00 | 0.00 | 90 | 1012.1 |
| 20260905110256 | 22 | 115 | 0.0 | 0.0 | 0.00 | 0.00 | 0.00 | 90 | 1012.0 |
| 20260905105255 | 22 | 115 | 0.0 | 0.0 | 0.00 | 0.00 | 0.00 | 90 | 1011.9 |
| 20260905104252 | 22 | 115 | 0.0 | 0.0 | 0.00 | 0.00 | 0.00 | 90 | 1011.8 |
| 20260905103316 | 22 | 115 | 0.0 | 0.0 | 0.00 | 0.00 | 0.00 | 90 | 1011.9 |
| 20260905102245 | 22 | 115 | 0.0 | 0.0 | 0.00 | 0.00 | 0.00 | 90 | 1011.8 |
| 20260905101255 | 22 | 115 | 0.0 | 0.0 | 0.00 | 0.00 | 0.00 | 90 | 1011.8 |
| 20260905100315 | 22 | 115 | 0.0 | 0.0 | 0.00 | 0.00 | 0.00 | 90 | 1011.8 |
| 20260905095306 | 22 | 115 | 0.0 | 0.0 | 0.00 | 0.00 | 0.00 | 90 | 1011.7 |
| 20260905094246 | 22 | 115 | 0.0 | 0.0 | 0.00 | 0.00 | 0.00 | 90 | 1011.7 |
| 20260905092100 | 22 | 115 | 0.0 | 0.0 | 0.00 | 0.00 | 0.00 | 90 | 1011.8 |
| 20260905091117 | 22 | 115 | 0.0 | 0.0 | 0.00 | 0.00 | 0.00 | 90 | 1011.8 |
| 20260905090115 | 22 | 115 | 0.0 | 0.0 | 0.00 | 0.00 | 0.00 | 90 | 1011.7 |
| 20260905085128 | 22 | 115 | 0.0 | 0.0 | 0.00 | 0.00 | 0.00 | 90 | 1011.8 |
| 20260905084144 | 22 | 115 | 0.0 | 0.0 | 0.00 | 0.00 | 0.00 | 90 | 1011.7 |
| 20260905083116 | 22 | 115 | 0.0 | 0.0 | 0.00 | 0.00 | 0.00 | 90 | 1011.7 |
| 20260905080932 | 22 | 115 | 0.0 | 0.0 | 0.00 | 0.00 | 0.00 | 91 | 1011.6 |
| 20260905075926 | 22 | 115 | 0.0 | 0.0 | 0.00 | 0.00 | 0.00 | 91 | 1011.4 |
| 20260905073847 | 23 | 115 | 0.0 | 0.0 | 0.00 | 0.00 | 0.00 | 91 | 1011.4 |
| 20260905072823 | 23 | 115 | 0.0 | 0.0 | 0.00 | 0.00 | 0.00 | 91 | 1011.4 |
| 20260905070624 | 23 | 115 | 0.0 | 0.0 | 0.00 | 0.00 | 0.00 | 91 | 1011.6 |
| 20260905065634 | 23 | 115 | 0.0 | 0.0 | 0.00 | 0.00 | 0.00 | 91 | 1011.6 |
| 20260905064614 | 23 | 115 | 0.0 | 0.0 | 0.00 | 0.00 | 0.00 | 91 | 1011.7 |
| 20260905062456 | 23 | 115 | 0.0 | 0.0 | 0.00 | 0.00 | 0.00 | 91 | 1011.8 |
| 20260905061452 | 23 | 115 | 0.0 | 0.0 | 0.00 | 0.00 | 0.00 | 91 | 1011.9 |
| 20260905060443 | 23 | 115 | 0.0 | 0.0 | 0.00 | 0.00 | 0.00 | 91 | 1011.9 |
| 20260905055428 | 23 | 115 | 0.0 | 0.0 | 0.00 | 0.00 | 0.00 | 91 | 1012.0 |
| 20260905054411 | 23 | 115 | 0.0 | 0.0 | 0.00 | 0.00 | 0.00 | 91 | 1012.2 |
| 20260905053407 | 23 | 115 | 0.0 | 0.0 | 0.00 | 0.00 | 0.00 | 90 | 1012.1 |
| 20260905051243 | 24 | 115 | 0.0 | 0.0 | 0.00 | 0.00 | 0.00 | 91 | 1012.2 |
| 20260905050232 | 24 | 115 | 0.0 | 0.0 | 0.00 | 0.00 | 0.00 | 90 | 1012.1 |
| 20260905044046 | 24 | 115 | 0.0 | 0.0 | 0.00 | 0.00 | 0.00 | 90 | 1012.1 |
| 20260905043108 | 24 | 115 | 0.0 | 0.0 | 0.00 | 0.00 | 0.00 | 90 | 1012.2 |
| 20260905042040 | 24 | 115 | 0.0 | 0.0 | 0.00 | 0.00 | 0.00 | 90 | 1012.2 |
| 20260905041044 | 24 | 115 | 0.0 | 0.0 | 0.00 | 0.00 | 0.00 | 90 | 1012.0 |